New Century — V7GF8 — position and weather

sailwx.info

Track history (hours):
 
Tides and Currents Weather Stations Pressure Air Temp Water Temp Dewpoint Dewpoint Depression Visibility Wind Speed Wind Dir Waves Ship Positions

New Century

Last reported at 2014-Oct-21 08:32 UTC. Time now 2014-Oct-26 06:03 UTC.
Position N 01°15' E 104°09'.

Length 228 m; draft 8 m.

Type: Tanker. MMSI: 538002085.

Date/timePositionNaut miles runAvg speedWind from/ knotsBaromVisibWave heightAir tempDewpointWater temp
2014-Oct-21 08:32N 01°15' E 104°09'1312.7
2014-Oct-21 07:33N 01°14' E 103°57'3 2.5
2014-Oct-21 06:31N 01°16' E 103°55'0 0.0
2014-Oct-21 05:25N 01°16' E 103°55'0 0.2
2014-Oct-21 04:10N 01°16' E 103°55'0 0.0
2014-Oct-21 03:22N 01°16' E 103°55'0 0.2
2014-Oct-21 02:22N 01°16' E 103°55'0 0.1
2014-Oct-21 01:31N 01°16' E 103°55'0 0.0
2014-Oct-21 00:19N 01°16' E 103°55'0 0.0
2014-Oct-20 23:16N 01°16' E 103°55'0 0.1
2014-Oct-20 22:31N 01°16' E 103°55'0 0.1
2014-Oct-20 21:31N 01°16' E 103°55'0 0.1
2014-Oct-20 20:16N 01°16' E 103°55'0 0.1
2014-Oct-20 19:22N 01°16' E 103°55'0 0.1
2014-Oct-20 18:31N 01°16' E 103°55'0 0.0
2014-Oct-20 15:31N 01°16' E 103°55'0 0.0
2014-Oct-20 14:19N 01°16' E 103°55'0 0.0
2014-Oct-20 13:16N 01°16' E 103°55'0 0.0
2014-Oct-20 12:19N 01°16' E 103°55'0 0.0
2014-Oct-20 11:25N 01°16' E 103°55'4 4.2
2014-Oct-20 10:30N 01°13' E 103°52'4 0.2
2014-Oct-19 12:14N 01°12' E 103°48'0 0.6
2014-Oct-19 11:32N 01°13' E 103°48'5 4.8
2014-Oct-19 10:33N 01°15' E 103°44'  
2014-Oct-15 21:11N 01°10' E 103°47'710.4
2014-Oct-15 20:33N 01°12' E 103°53'9 8.7
2014-Oct-15 19:33N 01°16' E 104°01'1210.5
2014-Oct-15 18:27N 01°17' E 104°12'  
Track history (hours):
 
Tides and Currents Weather Stations Pressure Air Temp Water Temp Dewpoint Dewpoint Depression Visibility Wind Speed Wind Dir Waves Ship Positions

New Century

Last reported at 2014-Oct-21 08:32 UTC. Time now 2014-Oct-26 06:03 UTC.
Position N 01°15' E 104°09'.

Length 228 m; draft 8 m.

Type: Tanker. MMSI: 538002085.

Date/timePositionNaut miles runAvg speedWind from/ knotsBaromVisibWave heightAir tempDewpointWater temp
2014-Oct-21 08:32N 01°15' E 104°09'1312.7
2014-Oct-21 07:33N 01°14' E 103°57'3 2.5
2014-Oct-21 06:31N 01°16' E 103°55'0 0.0
2014-Oct-21 05:25N 01°16' E 103°55'0 0.2
2014-Oct-21 04:10N 01°16' E 103°55'0 0.0
2014-Oct-21 03:22N 01°16' E 103°55'0 0.2
2014-Oct-21 02:22N 01°16' E 103°55'0 0.1
2014-Oct-21 01:31N 01°16' E 103°55'0 0.0
2014-Oct-21 00:19N 01°16' E 103°55'0 0.0
2014-Oct-20 23:16N 01°16' E 103°55'0 0.1
2014-Oct-20 22:31N 01°16' E 103°55'0 0.1
2014-Oct-20 21:31N 01°16' E 103°55'0 0.1
2014-Oct-20 20:16N 01°16' E 103°55'0 0.1
2014-Oct-20 19:22N 01°16' E 103°55'0 0.1
2014-Oct-20 18:31N 01°16' E 103°55'0 0.0
2014-Oct-20 15:31N 01°16' E 103°55'0 0.0
2014-Oct-20 14:19N 01°16' E 103°55'0 0.0
2014-Oct-20 13:16N 01°16' E 103°55'0 0.0
2014-Oct-20 12:19N 01°16' E 103°55'0 0.0
2014-Oct-20 11:25N 01°16' E 103°55'4 4.2
2014-Oct-20 10:30N 01°13' E 103°52'4 0.2
2014-Oct-19 12:14N 01°12' E 103°48'0 0.6
2014-Oct-19 11:32N 01°13' E 103°48'5 4.8
2014-Oct-19 10:33N 01°15' E 103°44'  
2014-Oct-15 21:11N 01°10' E 103°47'710.4
2014-Oct-15 20:33N 01°12' E 103°53'9 8.7
2014-Oct-15 19:33N 01°16' E 104°01'1210.5
2014-Oct-15 18:27N 01°17' E 104°12'  

Dump ship's entire track history